When you browse on this site, cookies collect data to enhance your experience and personalize the content and advertising you see.
Visit our Privacy Policy to learn more. By continuing to use the site, you agree to this use of cookies and data.
EN

Hourly Weather Potapivka

Today, 7 August, Friday

Time Temperature Precipitation Wind Pressure Humidity
00:00 +21°C° 0 mm 1 mps 750 mmHg 75%
01:00 +20°C° 0 mm 2 mps 750 mmHg 78%
02:00 +19°C° 0 mm 2 mps 750 mmHg 81%
03:00 +19°C° 0 mm 2 mps 750 mmHg 84%
04:00 +19°C° 0 mm 2 mps 750 mmHg 87%
05:00 +19°C° 0 mm 3 mps 750 mmHg 90%
06:00 +20°C° 0 mm 3 mps 750 mmHg 86%
07:00 +21°C° 0 mm 4 mps 751 mmHg 82%
08:00 +23°C° 0 mm 4 mps 751 mmHg 78%
09:00 +25°C° 0 mm 4 mps 751 mmHg 72%
10:00 +26°C° 0 mm 5 mps 751 mmHg 65%
11:00 +27°C° 0 mm 5 mps 751 mmHg 58%
12:00 +27°C° 0 mm 5 mps 751 mmHg 57%
13:00 +27°C° 0 mm 5 mps 751 mmHg 55%
14:00 +27°C° 0 mm 5 mps 750 mmHg 54%
15:00 +27°C° 0 mm 5 mps 750 mmHg 56%
16:00 +26°C° 0 mm 5 mps 750 mmHg 59%
17:00 +26°C° 0 mm 4 mps 750 mmHg 62%
18:00 +23°C° 0 mm 4 mps 750 mmHg 66%
19:00 +21°C° 0 mm 3 mps 750 mmHg 71%
20:00 +19°C° 0 mm 3 mps 750 mmHg 75%
21:00 +19°C° 0 mm 3 mps 750 mmHg 77%
22:00 +18°C° 0 mm 3 mps 750 mmHg 79%
23:00 +17°C° 0 mm 3 mps 750 mmHg 81%

Tomorrow, 8 August, Saturday

Time Temperature Precipitation Wind Pressure Humidity
00:00 +17°C° 0 mm 3 mps 750 mmHg 82%
01:00 +16°C° 0 mm 3 mps 750 mmHg 84%
02:00 +16°C° 0 mm 3 mps 750 mmHg 85%
03:00 +16°C° 0 mm 3 mps 750 mmHg 86%
04:00 +16°C° 0 mm 3 mps 750 mmHg 86%
05:00 +14°C° 0 mm 3 mps 749 mmHg 87%
06:00 +17°C° 0 mm 3 mps 750 mmHg 81%
07:00 +19°C° 0 mm 3 mps 750 mmHg 75%
08:00 +21°C° 0 mm 3 mps 750 mmHg 69%
09:00 +22°C° 0 mm 4 mps 750 mmHg 64%
10:00 +23°C° 0 mm 4 mps 750 mmHg 59%
11:00 +26°C° 0 mm 4 mps 749 mmHg 55%
12:00 +26°C° 0 mm 4 mps 749 mmHg 54%
13:00 +26°C° 0 mm 4 mps 749 mmHg 53%
14:00 +26°C° 0 mm 4 mps 748 mmHg 53%
15:00 +26°C° 0 mm 4 mps 748 mmHg 55%
16:00 +26°C° 0 mm 3 mps 748 mmHg 58%
17:00 +25°C° 0 mm 3 mps 747 mmHg 60%
18:00 +24°C° 0 mm 3 mps 747 mmHg 66%
19:00 +21°C° 0 mm 2 mps 747 mmHg 72%
20:00 +19°C° 0 mm 2 mps 747 mmHg 77%
21:00 +19°C° 0 mm 2 mps 747 mmHg 79%
22:00 +18°C° 0 mm 2 mps 747 mmHg 81%
23:00 +17°C° 0 mm 2 mps 747 mmHg 83%

Day after tomorrow, 9 August, Sunday

Time Temperature Precipitation Wind Pressure Humidity
00:00 +17°C° 0 mm 2 mps 747 mmHg 85%
01:00 +17°C° 0 mm 2 mps 747 mmHg 87%
02:00 +16°C° 0 mm 2 mps 747 mmHg 89%
03:00 +16°C° 0 mm 2 mps 746 mmHg 89%
04:00 +16°C° 0 mm 2 mps 746 mmHg 90%
05:00 +16°C° 0 mm 2 mps 746 mmHg 91%
06:00 +18°C° 0 mm 2 mps 746 mmHg 85%
07:00 +20°C° 0 mm 2 mps 746 mmHg 79%
08:00 +22°C° 0 mm 3 mps 746 mmHg 73%
09:00 +24°C° 0 mm 3 mps 746 mmHg 68%
10:00 +25°C° 0 mm 3 mps 746 mmHg 63%
11:00 +26°C° 0 mm 4 mps 746 mmHg 58%
12:00 +27°C° 0.1 mm 3 mps 746 mmHg 56%
13:00 +27°C° 0.1 mm 3 mps 745 mmHg 55%
14:00 +27°C° 0.1 mm 3 mps 745 mmHg 53%
15:00 +27°C° 0.2 mm 3 mps 745 mmHg 57%
16:00 +26°C° 0.2 mm 3 mps 745 mmHg 60%
17:00 +25°C° 0.2 mm 3 mps 745 mmHg 64%
18:00 +24°C° 0 mm 2 mps 745 mmHg 68%
19:00 +21°C° 0 mm 2 mps 745 mmHg 73%
20:00 +20°C° 0 mm 2 mps 745 mmHg 77%
21:00 +19°C° 0 mm 2 mps 745 mmHg 78%
22:00 +18°C° 0 mm 2 mps 745 mmHg 79%
23:00 +19°C° 0 mm 1 mps 745 mmHg 81%

10 August, Monday

Time Temperature Precipitation Wind Pressure Humidity
00:00 +19°C° 0 mm 1 mps 745 mmHg 81%
01:00 +18°C° 0 mm 1 mps 745 mmHg 81%
02:00 +18°C° 0 mm 1 mps 744 mmHg 82%
03:00 +18°C° 0 mm 1 mps 744 mmHg 82%
04:00 +18°C° 0 mm 1 mps 744 mmHg 83%
05:00 +17°C° 0 mm 2 mps 744 mmHg 84%
06:00 +18°C° 0 mm 2 mps 744 mmHg 80%
07:00 +20°C° 0 mm 2 mps 745 mmHg 76%
08:00 +21°C° 0 mm 2 mps 745 mmHg 72%
09:00 +22°C° 0 mm 3 mps 745 mmHg 68%
10:00 +24°C° 0 mm 3 mps 745 mmHg 65%
11:00 +26°C° 0 mm 3 mps 745 mmHg 61%
12:00 +26°C° 0 mm 4 mps 745 mmHg 58%
13:00 +26°C° 0 mm 4 mps 745 mmHg 56%
14:00 +27°C° 0 mm 4 mps 744 mmHg 53%
15:00 +26°C° 0 mm 3 mps 744 mmHg 56%
16:00 +25°C° 0 mm 3 mps 744 mmHg 58%
17:00 +25°C° 0 mm 2 mps 744 mmHg 61%
18:00 +23°C° 0 mm 2 mps 744 mmHg 65%
19:00 +21°C° 0 mm 2 mps 744 mmHg 69%
20:00 +19°C° 0 mm 2 mps 744 mmHg 74%
21:00 +18°C° 0 mm 2 mps 744 mmHg 76%
22:00 +18°C° 0 mm 2 mps 744 mmHg 78%
23:00 +18°C° 0 mm 1 mps 744 mmHg 80%

11 August, Tuesday

Time Temperature Precipitation Wind Pressure Humidity
00:00 +18°C° 0 mm 1 mps 744 mmHg 82%
01:00 +16°C° 0 mm 1 mps 744 mmHg 83%
02:00 +16°C° 0 mm 1 mps 744 mmHg 85%
03:00 +15°C° 0 mm 0 mps 744 mmHg 85%
04:00 +15°C° 0 mm 0 mps 744 mmHg 84%
05:00 +15°C° 0 mm 0 mps 744 mmHg 84%
06:00 +17°C° 0 mm 0 mps 744 mmHg 78%
07:00 +21°C° 0 mm 1 mps 744 mmHg 71%
08:00 +23°C° 0 mm 1 mps 744 mmHg 65%
09:00 +24°C° 0 mm 1 mps 744 mmHg 61%
10:00 +25°C° 0 mm 2 mps 744 mmHg 57%
11:00 +26°C° 0 mm 2 mps 744 mmHg 53%
12:00 +27°C° 0 mm 2 mps 743 mmHg 52%
13:00 +27°C° 0 mm 3 mps 743 mmHg 51%
14:00 +28°C° 0 mm 3 mps 743 mmHg 49%
15:00 +27°C° 0.3 mm 3 mps 743 mmHg 54%
16:00 +27°C° 0.3 mm 3 mps 742 mmHg 58%
17:00 +26°C° 0.3 mm 2 mps 742 mmHg 63%
18:00 +25°C° 0.3 mm 3 mps 742 mmHg 69%
19:00 +22°C° 0.3 mm 3 mps 742 mmHg 76%
20:00 +20°C° 0.3 mm 3 mps 742 mmHg 83%
21:00 +19°C° 0 mm 3 mps 742 mmHg 86%
22:00 +18°C° 0 mm 3 mps 742 mmHg 90%
23:00 +17°C° 0 mm 3 mps 742 mmHg 93%

12 August, Wednesday

Time Temperature Precipitation Wind Pressure Humidity
00:00 +17°C° 0 mm 3 mps 742 mmHg 94%
01:00 +16°C° 0 mm 3 mps 742 mmHg 95%
02:00 +14°C° 0 mm 3 mps 742 mmHg 96%
03:00 +14°C° 0 mm 3 mps 742 mmHg 95%
04:00 +13°C° 0 mm 3 mps 742 mmHg 94%
05:00 +12°C° 0 mm 3 mps 742 mmHg 93%
06:00 +14°C° 0 mm 3 mps 742 mmHg 86%
07:00 +15°C° 0 mm 4 mps 742 mmHg 79%
08:00 +17°C° 0 mm 4 mps 742 mmHg 72%
09:00 +18°C° 0 mm 4 mps 742 mmHg 67%
10:00 +20°C° 0 mm 5 mps 742 mmHg 63%
11:00 +21°C° 0 mm 5 mps 742 mmHg 58%
12:00 +21°C° 0.1 mm 5 mps 742 mmHg 58%
13:00 +21°C° 0.1 mm 6 mps 742 mmHg 58%
14:00 +22°C° 0.1 mm 6 mps 742 mmHg 58%
15:00 +21°C° 0 mm 6 mps 742 mmHg 61%
16:00 +21°C° 0 mm 5 mps 742 mmHg 64%
17:00 +20°C° 0 mm 5 mps 742 mmHg 67%
18:00 +17°C° 0 mm 5 mps 742 mmHg 74%
19:00 +17°C° 0 mm 4 mps 742 mmHg 81%
20:00 +14°C° 0 mm 4 mps 742 mmHg 88%
21:00 +14°C° 0 mm 4 mps 742 mmHg 90%
22:00 +13°C° 0 mm 4 mps 742 mmHg 91%
23:00 +12°C° 0 mm 4 mps 742 mmHg 92%
Show more